Weather History for Jonesboro, AR

Change the Weather History Date:

Saturday, March 10, 2012

  Actual Average Record
Temperature  
Mean Temperature 49 °F 48 °F  
Max Temperature 61 °F 58 °F 84 °F (1901)
Min Temperature 37 °F 38 °F 19 °F (1998)
Degree Days  
Heating Degree Days 16 17  
Month to date heating degree days 122 182  
Since 1 July heating degree days 2561 3138  
Cooling Degree Days 0 0  
Month to date cooling degree days 0 0  
Year to date cooling degree days 3 0  
Moisture  
Dew Point 32 °F    
Average Humidity 53    
Maximum Humidity 70    
Minimum Humidity 35    
Precipitation  
Precipitation 0.25 in 0.13 in 2.94 in (1964)
Month to date precipitation 3.08 1.30  
Year to date precipitation 8.11 8.45  
Snow  
Snow 0.00 in - 0.30 in (1949)
Month to date snowfall 0.0  
Since 1 July snowfall 5.5  
Snow Depth 0.00 in    
Sea Level Pressure  
Sea Level Pressure 30.38 in    
Wind  
Wind Speed 8 mph (NE)    
Max Wind Speed 16 mph    
Max Gust Speed 20 mph    
Visibility 10 miles    
Events      
T = Trace of Precipitation, MM = Missing Value Source: NWS Daily Summary

Daily Weather History Graph

Daily Weather History Graph

Search for Another Location

Airport:

Trip Planner

Search our weather history database for the weather conditions in past years. The results will help you decide how hot, cold, wet, or windy it might be!

Date:

Astronomy

Mar. 10, 2012 Rise Set
Actual Time 6:19 AM CST 6:06 PM CST
Civil Twilight 5:54 AM CST 6:31 PM CST
Nautical Twilight 5:24 AM CST 7:01 PM CST
Astronomical Twilight 4:54 AM CST 7:31 PM CST
Moon 9:09 PM CST (3/10) 7:22 AM CST (3/10)
Length of Visible Light 12h 37m
Length of Day
11h 46m
Waning Gibbous, 92% of the Moon is Illuminated
Mar 10
Waning Gibbous
Mar 14
Last Quarter
Mar 22
New
Mar 30
First Quarter
Apr 6
Full

Hourly Weather History & Observations

Time (CST) Temp. Windchill Dew Point Humidity Pressure Visibility Wind Dir Wind Speed Gust Speed Precip Events Conditions
12:53 AM 42.1 °F 37.1 °F 30.9 °F 65% 30.46 in 10.0 mi NE 8.1 mph - 0.02 in   Clear
1:53 AM 43.0 °F 37.7 °F 30.0 °F 60% 30.45 in 10.0 mi NE 9.2 mph - 0.02 in   Clear
2:53 AM 42.1 °F 36.6 °F 28.9 °F 60% 30.43 in 10.0 mi NE 9.2 mph - 0.01 in   Clear
3:53 AM 41.0 °F 35.2 °F 30.0 °F 65% 30.42 in 10.0 mi NE 9.2 mph - 0.02 in   Clear
4:53 AM 39.9 °F 33.4 °F 30.0 °F 68% 30.44 in 10.0 mi NE 10.4 mph - 0.01 in   Clear
5:53 AM 37.0 °F 31.0 °F 28.9 °F 73% 30.45 in 10.0 mi NE 8.1 mph - 0.01 in   Clear
6:53 AM 39.0 °F 34.0 °F 28.9 °F 67% 30.44 in 10.0 mi NE 6.9 mph - 0.02 in   Clear
7:53 AM 43.0 °F 38.8 °F 30.0 °F 60% 30.47 in 10.0 mi East 6.9 mph - 0.01 in   Clear
8:53 AM 46.9 °F - 30.9 °F 54% 30.48 in 10.0 mi East 8.1 mph - 0.02 in   Clear
9:53 AM 50.0 °F - 30.0 °F 46% 30.47 in 10.0 mi East 10.4 mph - 0.01 in   Clear
10:53 AM 52.0 °F - 32.0 °F 47% 30.47 in 10.0 mi NE 8.1 mph - 0.01 in   Clear
11:53 AM 55.9 °F - 32.0 °F 40% 30.43 in 10.0 mi NE 8.1 mph - 0.01 in   Clear
12:53 PM 57.9 °F - 34.0 °F 41% 30.39 in 10.0 mi East 6.9 mph 23.0 mph 0.01 in   Clear
1:53 PM 59.0 °F - 35.1 °F 41% 30.36 in 10.0 mi East 6.9 mph - 0.01 in   Clear
2:53 PM 60.1 °F - 32.0 °F 35% 30.32 in 10.0 mi ENE 11.5 mph - 0.01 in   Clear
3:53 PM 60.1 °F - 33.1 °F 36% 30.30 in 10.0 mi NE 6.9 mph - 0.01 in   Clear
4:53 PM 60.1 °F - 34.0 °F 38% 30.30 in 10.0 mi NE 9.2 mph - 0.01 in   Clear
5:53 PM 55.0 °F - 35.1 °F 47% 30.29 in 10.0 mi NE 4.6 mph - N/A   Clear
6:53 PM 51.1 °F - 35.1 °F 54% 30.28 in 10.0 mi NE 4.6 mph - 0.01 in   Clear
7:53 PM 48.9 °F - 36.0 °F 61% 30.29 in 10.0 mi NNE 5.8 mph - N/A   Clear
8:53 PM 50.0 °F - 36.0 °F 59% 30.28 in 10.0 mi NE 6.9 mph - 0.01 in   Clear
9:53 PM 48.0 °F - 37.0 °F 66% 30.27 in 10.0 mi NE 9.2 mph - N/A   Clear
10:53 PM 48.9 °F - 35.1 °F 59% 30.27 in 10.0 mi NE 6.9 mph - N/A   Clear
11:53 PM 48.9 °F - 34.0 °F 56% 30.27 in 10.0 mi Calm Calm - 0.01 in   Clear